Regional Weather Roundup
Issued by NWS

Home | Current Version | Previous Version | Graphics & Text | Print | Product List | Glossary On
Versions: 1 2 3 4 5 6 7 8 9 10 11 12 13 14 15 16 17 18 19 20 21 22 23 24 25 26 27 28 29 30 31 32 33 34 35 36 37 38 39 40 41 42 43 44 45 46 47 48 49 50
000
ASUS43 KBIS 020310
RWRND

NORTH DAKOTA REGIONAL WEATHER ROUNDUP
NATIONAL WEATHER SERVICE BISMARCK ND
1000 PM CDT WED APR 01 2015

NOTE: "FAIR" INDICATES FEW OR NO CLOUDS BELOW 12,000 FEET WITH NO
SIGNIFICANT WEATHER AND/OR OBSTRUCTIONS TO VISIBILITY.


NDZ001>003-009>011-017-020400-
NORTHWEST NORTH DAKOTA

CITY           SKY/WX    TMP DP  RH WIND       PRES   REMARKS
WILLISTON      CLEAR     45  23  42 W18       29.68R
MINOT          CLEAR     43  22  43 SW10      29.64R
MINOT AFB      PTCLDY    40  26  57 W10       29.63R
$$

NDZ018>021-031>035-040>046-020400-
SOUTHWEST NORTH DAKOTA

CITY           SKY/WX    TMP DP  RH WIND       PRES   REMARKS
BISMARCK       CLEAR     47  23  38 W9        29.74R
DICKINSON      CLEAR     34  19  54 W5        29.74R
GARRISON         N/A     42  26  53 W10       29.68S
HETTINGER ARPT CLEAR     32  19  58 W3        29.79S
$$

NDZ004>008-012>016-024-026-027-054-020400-
NORTHEAST NORTH DAKOTA

CITY           SKY/WX    TMP DP  RH WIND       PRES   REMARKS
GRAND FORKS    CLOUDY    48  38  68 W13       29.57R
GRND FRKS AFB  CLOUDY    49  34  56 NW16G25   29.58R
DEVILS LAKE    CLEAR     41  28  60 W9        29.61R
$$

NDZ022-023-025-028>030-036>039-047>053-020400-
SOUTHEAST NORTH DAKOTA

CITY           SKY/WX    TMP DP  RH WIND       PRES   REMARKS
FARGO          MOCLDY    53  36  52 NW17      29.58S
JAMESTOWN      MOCLDY    44  28  53 W8        29.66R
$$




USA.gov is the U.S. government's official web portal to all federal, state and local government web resources and services.